Zurück zum Katalog

COSMOS 886 DEB

AktivUNKNOWN
NORAD 9965·DEBRIS·🇷🇺 Russia

Gestartet Dec 27, 1976 von Baikonur Cosmodrome

Loading…

Nächste Überflüge (nächste 24 Stunden)

TLE

AktuellSource: Space-Track

Epoche: Sep 14, 2026, 04:47 UTC

1 09965U 76126BF  26257.19973333 -.00000632  00000-0 -17744-2 0  9999
2 09965  65.7956 168.9766 0886539 224.3567 297.4101 12.13575183179029

Verfolge COSMOS 886 DEB in Echtzeit mit AllMySat

Download on the App Store